Notices

What's New in latest Release from April 7th, 2021:

- Updated Glossary, including Speed of Maximum Gust, and Total Hourly Precipitation

- Updated national and regional climate services offices contacts and prices information

- Addition of station inventory lists for 1981-2010, 1971-2000, and 1961-1990 Normals.

If you haven't already, please take our survey and provide feedback about our website: https://eccc.sondage-survey.ca/f/LanguageSelection.aspx?s=442ca660-fcf1-47c0-95a9-59707d6fd709

Hourly Data Report for September 03, 2015

IQALUIT CLIMATE
NUNAVUT

63°44'50.000" N
68°32'40.000" W
33.50 m
2402592
71321
XFB

Download Data

Hourly Data (September 2015)
Hourly Data Report for September 3, 2015
TIME
LST
Temp Definition
°C
Dew Point Definition
°C
Rel Hum Definition
%
Precip. Amount Definition
mm

Wind Dir Definition
10's deg

Wind Spd Definition
km/h
Visibility Definition
km
Stn Press Definition
kPa
Hmdx Definition


Wind Chill Definition


Weather Definition


00:00 1.4 -0.7 85 0.0 31 6   101.51     LegendNANA
01:00 1.6 -0.4 87 0.0 34 5   101.54     LegendNANA
02:00 1.3 -0.4 89 0.0 14 2   101.54     LegendNANA
03:00 0.8 -0.6 91 0.0 32 3   101.57     LegendNANA
04:00 1.7 0.0 89 0.0 6 1   101.55     LegendNANA
05:00 1.6 0.0 89 0.0 18 2   101.54     LegendNANA
06:00 2.8 0.8 87 0.0 24 1   101.54     LegendNANA
07:00 3.8 1.2 83 0.0 15 4   101.52     LegendNANA
08:00 4.4 1.3 80 0.0 13 5   101.53     LegendNANA
09:00 4.3 1.0 79 0.0 15 6   101.48     LegendNANA
10:00 4.4 1.0 79 0.0 13 6   101.42     LegendNANA
11:00 4.8 1.4 79 0.0 14 5   101.39     LegendNANA
12:00 5.2 1.3 76 0.0 17 4   101.33     LegendNANA
13:00 LegendMM 3.1 70 0.0 17 5   101.33     LegendNANA
14:00 6.4 1.5 71 0.0 12 8   101.31     LegendNANA
15:00 6.6 1.1 68 0.0 15 7   101.25     LegendNANA
16:00 6.7 0.8 66 0.0 14 7   101.22     LegendNANA
17:00 6.1 1.0 70 0.0 16 6   101.14     LegendNANA
18:00 5.4 0.9 73 0.0 15 9   101.10     LegendNANA
19:00 5.1 1.1 75 0.0 16 7   101.08     LegendNANA
20:00 5.2 0.9 74 0.0 13 7   101.03     LegendNANA
21:00 4.6 1.4 79 0.0 20 1   100.99     LegendNANA
22:00 5.2 2.2 81 0.0 20 2   100.96     LegendNANA
23:00 4.8 2.1 83 0.0 36 1   100.92     LegendNANA

Notes on Data Quality.

Legend

  • E = Estimated
  • M = Missing
  • NA = Not Available*
  • [empty] = Indicates an unobserved value
Date modified: